Theta_e
341 349 356 355 353 352 349 346 345 345 343 342 340 339 338 339 337 335 334 334 332 332 332 331 331 332 331 331 332 333 334 334 336 340 345 348 351 355 355 354 357 354 358
343 349 356 355 353 351 350 348 347 347 346 344 341 340 338 338 336 336 335 334 334 334 334 333 334 334 334 333 333 332 333 334 336 336 338 341 346 353 355 352 355 356 358
343 347 351 354 353 351 350 349 348 347 346 345 344 342 340 340 337 337 336 336 336 335 335 335 335 336 337 338 336 336 335 335 336 337 337 332 335 345 355 355 354 357 357
342 345 347 354 352 351 351 349 348 347 347 346 345 342 340 340 339 337 337 337 337 338 338 338 339 339 340 341 341 340 339 337 337 337 332 333 330 341 356 355 353 354 357
340 343 344 353 352 351 351 350 349 348 348 347 345 343 341 341 341 342 340 340 341 342 343 342 342 342 342 342 344 343 342 340 339 337 330 327 324 333 350 355 354 355 354
341 341 349 353 353 352 351 350 349 349 349 348 346 345 344 343 343 344 342 342 342 343 344 345 346 345 344 344 347 345 345 344 343 336 332 332 332 340 355 354 353 352 354
341 340 349 353 353 352 352 351 350 350 349 349 349 347 346 347 347 346 344 343 344 345 346 345 346 346 345 345 344 344 345 344 339 337 335 335 331 351 354 355 353 351 351
342 341 347 352 353 352 352 352 351 349 349 349 349 349 349 349 348 347 345 346 347 347 345 345 344 344 345 344 344 345 345 342 337 333 336 335 340 353 354 353 352 350 350
342 343 346 347 350 354 353 351 350 350 349 349 349 349 349 349 349 349 349 348 348 347 345 343 341 341 342 343 343 344 344 342 336 334 335 333 346 349 351 351 351 350 350
340 346 345 345 346 345 347 353 351 350 350 349 349 349 350 349 350 350 349 349 347 345 343 340 339 338 339 342 343 343 342 342 335 334 334 333 343 349 349 350 349 350 350
329 345 345 345 345 344 344 348 351 352 351 350 349 350 348 342 341 343 346 348 347 344 343 341 340 338 337 337 339 341 342 333 334 334 333 339 344 348 347 347 348 350 350
317 342 345 345 344 344 346 345 346 345 344 345 344 343 342 339 334 337 342 350 348 347 346 343 340 338 337 330 330 337 334 333 333 331 331 342 346 347 346 346 347 349 350
317 322 344 345 345 344 344 344 345 344 343 344 340 338 340 339 335 337 333 340 336 343 333 337 333 332 330 329 329 327 332 333 332 331 332 342 345 346 346 344 346 347 348
317 319 337 346 347 345 345 342 343 342 342 341 341 337 339 337 335 333 331 333 331 331 330 328 329 330 329 331 331 330 332 333 330 331 330 342 344 346 346 344 343 344 347
316 319 325 340 346 345 341 343 342 341 340 339 338 338 339 336 331 331 330 331 330 330 329 329 331 331 329 329 331 331 329 329 329 333 333 342 344 343 344 344 343 343 345
318 319 326 339 343 344 342 341 342 342 341 339 339 339 340 335 332 332 333 332 330 329 329 329 328 327 327 327 327 328 331 328 329 332 335 334 342 342 345 343 343 343 343
322 321 328 336 340 341 341 339 341 343 341 339 339 341 339 335 333 334 331 330 330 330 330 328 328 328 327 327 326 330 331 328 328 331 331 331 336 341 342 344 343 343 343
321 323 328 342 341 342 340 341 343 342 339 338 336 338 337 335 335 334 330 330 330 331 329 328 327 326 326 325 324 326 327 328 327 332 330 332 332 332 338 341 343 344 345
319 324 329 337 342 342 342 341 342 340 336 334 333 333 338 337 338 333 331 330 331 331 329 328 327 325 323 324 324 324 324 324 326 330 329 328 330 331 331 339 340 342 344
319 326 330 335 341 342 344 341 340 337 334 334 332 333 335 336 337 333 332 331 330 329 328 326 325 325 324 323 326 325 323 325 326 324 328 330 329 329 330 329 334 336 343
328 333 335 338 342 344 342 340 336 332 331 331 333 333 335 335 335 333 330 329 330 328 328 326 325 323 323 323 319 320 322 324 324 325 325 326 327 327 325 332 332 333 336
326 333 336 342 343 343 342 338 336 331 330 331 330 331 333 334 333 330 330 328 328 326 326 325 325 322 321 322 317 316 310 314 321 324 325 325 325 325 326 333 332 333 331
330 333 336 338 341 340 340 338 333 329 328 327 327 329 331 332 333 330 330 327 327 326 325 322 322 321 318 319 323 317 310 308 312 319 322 324 325 328 326 331 331 333 332
330 333 334 339 339 339 337 332 329 324 324 325 325 327 329 332 334 332 329 328 326 326 324 324 325 321 320 317 319 322 321 318 311 309 317 320 323 324 325 326 327 330 332
331 331 335 337 336 335 332 330 327 323 325 326 328 327 328 328 330 331 329 328 326 325 325 324 323 322 321 318 317 317 320 319 319 316 309 313 319 322 324 326 327 328 331
332 334 335 334 332 332 331 330 326 325 326 323 325 326 325 327 328 329 330 326 325 325 325 325 325 323 321 320 320 320 317 314 313 315 311 312 314 319 324 326 327 327 328
Wind_Speed
7 15 20 20 19 19 19 18 17 16 16 15 14 13 12 11 10 9 9 8 6 6 5 3 3 2 2 1 1 1 2 4 6 7 9 8 9 6 1 2 8 9 10
16 15 20 20 20 20 19 18 17 16 15 15 14 13 13 11 11 9 9 7 6 4 4 2 0 0 0 1 1 1 2 3 5 6 9 10 11 8 5 3 3 10 11
17 15 17 20 20 20 19 18 17 16 16 15 14 13 13 11 10 9 8 7 6 5 4 3 2 3 3 3 3 4 3 3 4 6 7 5 6 13 8 6 5 10 10
17 14 14 20 20 20 19 19 17 17 16 16 15 14 13 11 10 9 8 7 6 6 5 5 5 5 5 5 5 4 5 5 5 6 4 5 7 11 10 9 7 9 10
15 13 11 18 18 19 19 19 18 17 16 16 15 14 13 12 10 9 8 7 7 8 7 7 7 7 7 8 8 7 5 5 6 6 5 6 6 9 13 10 8 9 11
15 15 15 16 15 17 17 18 18 17 16 16 16 15 14 13 12 11 9 8 9 8 8 10 10 10 9 9 8 10 8 6 6 5 6 7 7 9 9 7 7 8 10
15 17 20 25 20 18 18 17 18 18 17 17 17 17 15 14 12 11 11 10 10 10 9 10 10 9 9 9 9 7 6 7 5 5 6 6 6 9 9 10 6 6 9
19 18 19 27 26 23 21 20 19 19 18 18 18 17 16 15 14 12 12 11 11 11 10 8 7 8 7 7 8 8 7 9 7 4 6 5 5 12 15 13 9 6 6
17 15 15 18 23 27 25 23 21 20 20 19 18 17 17 16 14 13 12 11 11 11 10 9 9 10 10 9 9 8 9 10 6 4 7 3 7 11 13 14 11 8 7
16 15 16 16 17 17 17 24 23 21 20 19 18 17 17 16 14 13 13 11 13 12 12 12 11 11 11 10 9 10 12 14 6 5 5 5 11 12 13 14 13 11 9
10 15 14 16 16 16 15 16 21 23 20 19 18 18 13 5 7 11 11 14 15 15 14 14 12 12 12 12 12 14 15 4 5 5 5 11 13 11 13 13 12 10 10
6 15 14 14 16 15 13 15 14 14 11 10 10 9 6 7 6 9 9 17 17 17 16 14 14 13 11 4 4 12 5 5 4 4 5 15 14 14 15 14 14 11 10
7 6 17 16 15 17 14 11 8 8 8 8 9 7 7 6 5 5 3 4 6 11 4 7 7 5 5 4 4 5 8 7 4 5 9 14 14 16 15 14 13 12 11
9 6 15 19 16 16 11 11 11 9 9 8 10 10 7 5 5 4 3 5 5 4 6 5 4 5 7 7 7 5 6 6 4 4 6 14 14 15 15 15 14 13 11
7 9 9 16 17 16 13 10 10 10 10 11 10 11 8 6 5 4 4 3 4 4 5 5 5 6 6 6 5 5 5 5 6 3 3 14 15 14 15 16 16 15 13
8 8 6 15 17 16 14 14 11 10 11 10 9 10 11 7 5 4 4 4 4 5 4 4 4 4 4 4 5 6 6 5 4 5 5 5 12 14 15 15 15 15 15
8 9 9 12 15 17 15 11 10 10 10 10 8 11 11 8 7 5 4 2 3 3 3 2 2 2 3 3 5 5 5 6 5 5 5 4 5 11 13 14 16 16 16
8 9 9 10 14 12 12 7 8 8 7 8 7 8 11 8 8 5 3 3 3 3 3 2 3 3 3 4 4 4 4 4 6 4 4 4 5 5 10 14 15 14 15
10 9 10 9 14 14 8 8 6 7 5 5 6 6 9 8 7 6 4 4 4 4 3 3 4 4 3 4 4 4 4 4 5 3 5 6 6 6 5 13 16 15 15
9 7 7 8 10 9 7 6 4 4 5 5 4 5 8 8 8 6 5 5 4 4 4 4 5 4 3 4 3 4 4 3 3 3 5 4 5 6 6 7 6 8 15
5 8 9 11 10 10 8 7 4 5 4 4 5 6 8 7 7 6 4 5 5 5 5 5 4 6 4 3 1 1 2 4 4 4 4 4 4 5 6 5 6 5 7
8 7 8 9 12 9 9 4 4 5 3 4 3 6 7 8 7 6 5 5 5 3 5 5 4 2 3 4 3 2 1 4 3 4 3 4 6 4 5 6 6 7 5
9 9 8 9 9 7 8 6 5 4 4 3 1 2 4 7 6 6 6 3 3 3 4 3 4 5 3 2 5 5 1 4 0 2 5 4 5 3 4 6 6 6 7
8 9 9 9 9 8 9 7 8 5 4 4 4 3 4 6 5 6 4 3 4 3 3 3 3 3 4 4 1 3 2 3 2 1 2 4 3 3 4 2 4 4 6
10 9 8 9 9 9 8 8 6 5 3 3 4 8 7 4 6 5 5 5 3 3 3 3 3 4 3 3 3 2 3 3 2 2 2 1 2 2 2 3 4 4 5
10 10 9 9 7 8 8 8 9 8 4 5 5 5 4 3 1 1 2 3 3 3 4 4 4 5 5 4 4 4 4 3 4 3 3 2 4 1 3 3 3 2 4
Wind_Direction
147 158 159 155 152 146 148 149 148 145 142 141 138 135 131 129 127 124 123 120 117 115 109 96 103 114 114 98 73 28 351 335 329 331 332 334 325 327 311 155 131 122 126
141 160 162 159 156 151 151 153 152 150 149 146 144 144 143 141 139 141 137 136 141 140 128 117 74 318 281 260 251 249 264 307 316 318 317 320 314 295 248 207 150 134 140
143 159 164 166 159 156 156 156 157 155 154 154 152 154 151 150 151 155 151 158 168 177 174 186 226 258 277 269 262 262 261 266 291 303 304 308 292 291 232 215 173 152 156
147 158 166 169 163 160 161 160 162 162 162 160 159 159 157 159 163 166 166 175 194 207 210 213 232 252 260 263 257 251 264 264 272 282 301 281 282 288 234 213 193 172 170
141 151 165 169 167 165 165 164 166 168 168 165 165 164 166 171 176 174 180 198 212 222 229 236 241 247 253 253 252 251 243 265 276 278 272 270 272 284 261 189 198 186 186
147 153 158 172 174 172 171 171 169 174 174 171 172 172 175 182 184 184 193 209 228 235 247 254 251 248 248 252 259 251 245 251 264 272 265 268 271 263 121 145 190 195 178
159 164 164 170 176 177 179 180 177 179 182 180 180 179 182 188 190 193 203 216 226 237 248 263 274 281 275 265 253 243 236 241 247 263 273 273 286 191 145 150 160 172 195
165 171 170 172 174 178 181 182 185 183 188 190 187 183 188 190 193 195 206 220 233 237 247 251 263 268 272 259 259 247 236 238 248 267 266 268 266 160 152 148 143 153 188
168 159 168 175 178 180 182 184 183 188 191 195 195 190 192 192 195 197 205 220 229 222 232 245 247 253 259 257 251 239 226 229 231 256 277 282 235 184 168 147 145 152 177
150 162 173 177 181 181 183 185 182 188 194 196 199 197 196 194 198 199 207 213 214 219 226 234 244 247 250 249 248 241 230 234 230 234 256 263 273 212 179 154 156 155 168
147 170 173 175 179 182 181 188 185 186 195 199 201 201 198 188 205 215 211 205 213 219 214 223 232 246 247 247 246 244 240 217 217 226 240 245 255 192 191 162 152 162 164
286 176 174 178 179 177 180 183 187 183 187 193 200 200 187 195 210 218 210 206 208 216 209 214 226 237 246 225 239 246 236 223 214 233 240 242 235 184 189 163 162 162 161
249 160 181 180 180 177 181 178 180 187 176 183 189 191 192 203 214 217 194 190 196 202 198 215 228 213 210 224 230 232 221 212 213 228 246 263 245 200 193 178 171 165 162
251 240 173 183 179 184 177 179 177 180 181 179 192 192 184 202 201 203 192 191 185 185 199 205 207 190 206 225 233 207 196 211 213 220 230 245 238 187 196 185 176 172 167
232 226 164 172 178 184 181 177 176 182 178 180 186 193 188 187 185 205 229 207 183 172 181 210 209 196 201 222 248 263 215 212 218 200 266 282 194 181 185 188 185 180 179
219 216 168 172 179 178 185 180 177 178 173 180 184 187 180 172 172 194 216 216 189 169 174 195 205 189 184 204 239 240 250 230 212 196 193 250 193 181 189 202 191 191 185
204 213 193 174 174 181 183 173 173 178 170 180 180 172 168 161 171 179 202 214 214 191 169 154 193 188 207 238 254 258 251 256 221 198 186 188 188 192 194 196 205 197 191
193 204 193 176 177 172 179 163 159 169 160 167 148 159 162 159 160 178 199 220 211 179 169 194 217 225 220 220 233 243 239 226 251 208 222 182 188 193 212 204 202 203 199
209 206 189 167 171 177 155 153 148 149 133 141 128 131 158 167 168 167 190 211 188 164 181 203 226 196 209 236 239 245 237 217 235 221 212 207 179 193 189 211 200 204 208
231 215 177 157 159 152 137 116 101 111 120 113 128 157 162 162 169 175 195 215 181 170 206 221 209 217 199 209 247 252 228 231 257 230 218 218 195 201 193 186 191 210 206
123 130 162 142 152 141 148 145 134 141 137 120 145 175 169 167 173 186 184 197 176 195 212 211 202 209 228 195 133 289 286 246 243 242 253 240 237 227 197 177 187 195 206
147 134 126 129 149 146 151 127 128 133 137 146 155 180 164 163 170 177 182 182 204 227 247 242 218 207 218 174 163 146 322 318 266 233 229 227 233 241 205 181 179 184 170
136 128 123 122 131 118 124 115 98 90 64 72 133 176 174 156 145 141 173 186 199 199 250 244 198 176 201 235 192 145 126 233 266 225 225 224 244 206 222 165 188 187 184
141 130 119 122 123 120 131 120 139 136 138 184 161 150 152 150 164 145 142 180 211 211 218 241 197 185 161 217 171 221 199 162 184 342 288 218 221 209 191 151 161 180 154
128 118 118 123 112 118 123 125 123 123 140 133 119 108 101 103 115 155 176 186 188 181 206 200 207 192 185 169 176 165 216 239 178 170 232 314 42 34 136 171 233 159 178
114 108 115 112 109 115 118 122 124 109 112 103 114 115 132 134 125 34 211 183 182 187 215 218 211 200 198 195 199 199 187 168 200 166 189 194 158 75 43 37 38 147 161